Каюкос

США     35°25′39″N   120°52′22″W
темп.,
°C
ветер,
м/с
пор.,
м/с
влажн.,
%
обл.,
%
осадки,
мм/ч
давл.,
гПа
погр.,
м
19 апреля, пн
пн1923:00+14с11420 0.0 101914
02:00+12ссв11433 0.0 101911
05:00+11ссв22453 0.0 101915
08:00+15ссв22364 0.0 101975
11:00+25ссз22210 0.0 1018646
14:00+26зюз32221 0.0 10161248
17:00+23юз33325 0.0 1014359
20:00+13вюв01685 0.0 101513
20 апреля, вт
вт2023:00+11ссз22640 0.0 101629
02:00+9с22681 0.0 101519
05:00+8ссв22692 0.0 101526
08:00+11ссв23587 0.0 1014157
11:00+21сз2232100 0.0 1013608
14:00+21юз44375 0.0 1011744
17:00+17ююз44514 0.0 1010414
20:00+8ююз229375 0.0 101149
21 апреля, ср
ср2123:00+7ю229477 0.0 1012164
02:00+9ююв228461 0.0 1012310
05:00+6ююв11942 0.0 101214
08:00+9ююз118310 0.0 1013234
11:00+16юз21532 0.0 1012736
14:00+19юз43483 0.0 10111123
17:00+15юз45634 0.0 1010428
20:00+8юз339649 0.0 1011164
22 апреля, чт
чт2223:00+7юз239570 0.0 1013178
02:00+8ююз239194 0.0 1013287
05:00+8юз128684 0.0 1013345
08:00+10юз117816 0.0 1014358
11:00+17зюз21490 0.0 1014603
14:00+19юз434675 0.0 1013704
17:00+16юз45554 0.0 1012398
20:00+8юз229211 0.0 101448
23 апреля, пт
пт2323:00+7юз119739 0.0 101546
02:00+6ю119746 0.0 101590
05:00+6зюз119644 0.0 1015106
08:00+8ююз118754 0.0 1016247
11:00+16юз325332 0.0 1015596
14:00+17юз44483 0.0 1015598
17:00+14юз56593 0.0 1014485
20:00+7юз239438 0.0 1017120